GFSSE_850_thetae_057.txt.gz
Theta_e
335 335 336 335 334 333 332 331 331 332 332 332 327 324 320 316 315 313 313 314 316 317 318 318 320 324 326 325 326 324 327 329 328 323 322 324 329 333 336 336 335 334 334
335 334 335 335 333 331 331 331 331 333 334 332 326 323 318 315 314 313 312 313 314 314 316 317 319 320 321 321 324 326 329 329 327 326 323 318 317 322 327 332 336 335 335
336 334 334 335 333 331 330 331 331 331 333 330 325 320 317 316 315 314 311 312 313 313 313 313 316 318 321 324 326 327 327 326 325 324 321 318 319 317 316 319 324 328 332
334 334 334 334 333 331 330 330 331 331 330 329 324 320 320 320 317 315 314 311 311 311 312 312 312 313 319 323 326 326 325 323 319 320 319 313 309 312 310 309 315 318 321
336 334 334 334 334 332 331 330 330 331 330 328 325 323 324 324 322 320 316 314 311 310 310 309 309 310 312 315 318 320 320 320 319 314 309 308 308 308 308 308 308 313 316
337 334 335 334 334 333 332 330 330 331 330 329 326 325 325 327 326 326 325 319 315 313 309 307 305 305 308 310 313 315 314 310 310 308 307 307 307 307 307 307 307 308 308
337 335 336 336 334 333 332 331 331 331 331 330 329 327 328 328 328 327 326 325 320 316 314 308 305 304 304 305 306 307 306 307 307 307 307 307 307 307 307 307 307 307 307
335 335 335 337 337 334 332 331 332 333 331 330 329 329 329 329 329 328 327 326 324 320 317 314 307 304 304 304 305 305 306 306 306 306 306 306 307 307 307 307 307 307 307
335 334 335 335 337 336 334 332 333 333 332 331 330 330 330 330 329 328 326 326 323 319 318 318 315 308 304 303 303 304 305 305 305 306 306 306 307 307 307 307 307 308 308
337 335 335 335 335 336 336 335 335 335 333 332 331 330 330 330 330 327 326 325 323 322 320 318 318 318 315 309 305 303 303 303 304 304 304 305 305 306 306 309 309 308 308
332 337 335 338 336 334 338 336 335 335 334 333 332 331 331 331 328 327 326 325 323 322 321 320 319 318 318 318 318 317 314 310 306 304 304 303 303 304 304 304 311 319 322
334 330 334 332 336 339 337 334 333 332 334 333 332 332 332 330 328 328 327 325 323 322 321 321 321 320 319 319 319 319 318 318 318 317 316 315 313 311 307 304 303 305 308
326 329 329 329 327 335 335 333 333 332 331 331 331 332 331 329 329 329 327 325 324 323 322 322 321 321 320 320 320 319 319 319 319 318 318 317 317 316 316 316 315 312 305
319 321 323 324 325 327 328 330 332 331 332 330 331 330 330 329 329 330 328 327 325 324 323 322 322 322 321 320 320 320 319 319 319 318 318 317 316 316 315 315 315 314 314
315 315 316 317 319 321 323 324 333 332 331 331 330 331 330 329 328 330 328 327 325 325 325 324 323 323 322 322 322 322 321 320 319 319 318 316 316 316 315 313 312 311 311
314 313 313 312 312 312 315 321 330 329 330 331 330 329 329 328 328 330 329 327 327 326 323 323 324 323 323 322 320 319 319 318 316 317 316 315 313 312 311 309 308 307 307
313 312 313 313 312 312 312 318 326 327 329 330 329 328 328 328 328 330 328 327 326 324 323 323 323 323 322 321 318 318 317 316 315 314 312 310 309 307 305 304 303 301 300
312 313 312 312 312 312 312 319 328 327 328 328 328 327 326 326 329 327 327 327 325 323 321 322 321 322 320 318 316 314 313 312 311 309 308 306 304 302 300 298 297 296 296
312 312 312 312 312 312 312 322 324 326 325 326 326 325 328 330 326 327 326 324 323 321 321 321 319 318 316 314 312 310 309 308 307 306 305 303 301 298 295 294 293 293 293
311 311 312 312 311 312 313 324 323 324 325 324 325 325 325 324 325 323 321 320 320 320 319 317 313 310 309 308 308 307 306 306 305 304 303 299 296 294 292 292 292 291 291
311 311 311 312 312 312 318 322 322 323 324 323 322 320 321 322 321 320 320 319 319 318 316 309 305 304 305 306 305 305 304 304 303 302 299 296 293 291 291 291 290 290 290
310 311 311 312 312 313 320 322 321 322 322 322 321 320 320 321 320 319 318 317 316 311 306 303 300 300 300 303 303 303 302 300 299 299 296 295 290 290 290 289 289 289 288
311 311 311 312 312 315 322 321 320 321 321 321 320 320 319 319 317 316 315 311 306 303 301 298 297 297 297 296 300 298 299 299 298 294 294 290 290 289 289 288 288 288 287
311 310 311 312 313 313 316 319 320 320 320 320 319 318 318 316 313 311 306 303 301 298 298 298 297 296 295 295 294 294 293 292 291 291 290 289 288 288 288 287 287 287 286
310 310 311 313 314 314 317 318 318 319 319 318 318 317 316 312 307 303 300 298 297 297 297 297 296 296 295 295 294 293 292 291 290 290 289 289 288 287 287 287 286 286 286
309 309 311 313 315 316 317 318 318 318 318 318 317 316 313 307 302 298 297 296 296 297 297 296 295 295 294 293 293 293 292 290 290 289 288 287 287 287 287 286 286 286 285

GFSSE_850_thetae_060.txt.gz
Theta_e
335 336 336 335 334 334 331 331 332 332 331 325 322 318 315 314 312 313 313 314 315 317 317 320 323 323 322 323 325 329 327 325 323 320 318 321 327 333 335 335 334 335 335
334 336 335 334 333 332 331 332 334 334 330 324 319 316 314 313 312 312 312 313 313 314 316 317 318 317 321 327 326 324 322 322 322 319 315 314 317 320 325 328 333 334 335
333 335 335 333 331 331 331 331 331 332 329 323 319 318 316 314 313 311 311 312 312 312 312 314 317 318 320 322 322 322 320 316 319 318 313 309 313 312 313 318 321 325 329
334 334 335 333 331 331 331 330 330 330 329 324 321 321 321 318 315 313 311 310 310 311 311 312 312 315 317 319 320 318 317 316 312 308 308 308 308 308 308 309 314 316 318
334 334 334 334 332 330 330 330 330 331 328 325 323 323 324 324 324 321 315 313 310 309 308 308 310 312 314 316 316 315 310 310 308 307 307 308 308 307 307 308 308 309 311
334 334 333 334 333 331 330 330 330 330 329 327 324 324 326 327 326 325 323 317 314 309 306 304 304 307 310 312 311 308 307 307 307 307 308 308 308 308 308 308 307 307 307
336 334 334 333 333 332 331 330 330 330 330 329 327 327 327 327 326 325 326 322 318 314 309 305 304 304 305 306 306 306 306 307 306 307 307 308 308 308 308 308 308 308 308
335 334 335 335 334 333 332 331 331 332 331 330 328 328 328 328 327 326 326 324 320 317 314 307 304 304 304 304 305 305 305 305 306 306 307 307 314 316 312 310 309 308 308
335 334 334 336 336 334 333 332 332 333 331 330 329 329 329 328 328 326 325 323 320 318 317 316 309 304 303 303 303 304 304 304 305 305 306 307 312 321 323 323 321 320 317
335 334 334 334 335 336 335 332 332 333 332 331 330 330 329 329 328 325 325 323 321 320 318 318 318 316 310 306 304 303 303 303 303 303 304 305 306 310 311 319 320 321 322
336 334 334 334 335 335 336 335 334 335 333 332 331 330 330 329 327 326 326 323 320 321 320 319 318 318 318 318 317 316 315 314 311 309 309 312 313 312 309 306 307 306 309
335 336 334 334 334 336 335 334 335 334 335 332 332 331 331 329 327 326 326 324 323 322 321 321 320 319 319 318 318 318 318 318 317 317 317 317 319 318 318 317 316 314 312
331 332 329 334 331 334 333 333 334 332 332 330 331 331 332 329 327 326 327 325 323 322 321 321 321 320 320 319 319 319 318 318 318 318 317 317 317 316 316 315 315 315 315
327 331 329 329 332 328 332 333 331 332 331 330 329 330 331 329 327 327 328 327 325 323 322 321 321 321 320 320 320 320 319 319 318 317 317 316 316 315 314 312 312 313 313
322 323 325 326 327 327 326 327 328 331 331 331 328 329 330 329 328 327 329 327 325 325 324 323 322 322 321 321 320 319 319 318 318 317 316 314 313 311 310 309 308 307 308
316 317 319 321 323 324 327 328 328 326 330 330 329 328 329 330 328 328 329 327 326 324 325 324 322 323 322 320 318 316 317 316 315 314 313 311 309 307 305 303 301 300 301
314 314 314 313 313 313 313 317 324 324 329 329 329 329 329 328 327 326 329 328 326 323 324 322 320 320 320 319 317 316 315 313 312 310 309 307 304 302 300 298 297 296 295
314 314 313 312 312 312 311 311 316 322 327 327 328 327 328 327 326 326 329 328 325 323 323 322 321 320 320 318 315 313 311 310 308 306 304 302 300 298 296 294 294 293 293
313 312 312 312 312 312 312 312 316 321 325 327 327 327 326 326 325 325 329 325 324 323 323 320 320 319 318 314 311 309 307 306 305 303 302 299 296 295 293 292 292 292 291
312 312 312 312 312 312 312 312 318 324 325 325 326 326 325 324 325 327 324 325 325 322 320 319 318 316 313 310 308 306 305 304 303 302 299 296 295 292 292 291 291 291 291
312 312 312 311 312 312 312 314 320 322 322 324 324 325 323 323 326 325 325 323 321 320 319 316 313 310 308 307 305 304 303 302 302 300 298 295 292 291 290 290 289 289 289
312 311 311 311 311 312 312 314 318 322 322 322 323 323 324 322 322 322 321 319 319 319 316 310 306 305 304 304 303 302 301 300 299 298 296 292 290 289 290 289 289 289 288
312 312 311 310 311 312 312 314 318 321 321 322 323 322 320 318 320 320 319 318 318 315 309 303 301 299 300 300 299 299 300 299 299 295 293 290 290 289 289 288 288 288 288
314 313 311 310 310 312 312 314 318 320 321 321 321 321 319 319 319 319 317 316 314 306 302 299 297 297 297 297 297 297 294 294 293 292 290 289 288 288 288 288 287 287 287
313 312 310 309 310 311 312 313 318 320 320 320 320 319 319 318 317 316 315 312 305 300 297 297 297 296 296 296 295 295 294 293 292 291 290 288 288 288 288 287 287 286 286
312 311 310 309 310 311 313 316 320 320 318 320 319 319 318 317 316 312 308 303 298 297 297 297 296 296 296 295 294 294 293 293 291 291 290 289 288 287 287 287 286 286 286

GFSSE_850_thetae_063.txt.gz
Theta_e
336 335 333 333 334 332 332 332 333 329 324 319 315 314 313 312 312 313 314 315 317 322 324 324 323 327 329 329 320 319 320 319 316 315 319 325 330 334 334 334 335 335 335
336 336 334 334 334 331 332 333 333 329 323 317 315 314 312 311 311 312 313 313 313 315 318 317 326 327 322 320 317 315 314 316 314 310 309 313 315 319 323 328 329 331 333
335 335 334 333 332 331 332 334 334 329 323 318 318 317 314 312 311 310 311 312 312 312 314 315 321 319 319 317 315 314 312 309 308 308 308 308 308 309 313 316 318 321 324
334 335 334 331 331 331 332 333 334 329 324 321 322 322 321 318 314 312 310 310 310 311 311 313 316 317 316 316 314 310 309 307 307 308 308 308 309 308 308 310 312 314 315
333 334 334 331 331 331 331 331 332 329 325 322 322 324 325 324 322 317 313 309 308 307 308 309 311 313 313 312 308 307 307 307 308 308 308 308 309 308 307 307 308 308 308
333 333 334 332 331 330 330 330 330 329 327 324 323 325 326 325 324 323 318 313 309 306 305 305 307 309 309 307 307 307 307 307 307 308 309 310 316 318 313 309 308 307 307
333 333 333 333 332 331 330 330 330 330 329 327 325 326 326 326 325 325 322 318 312 307 304 304 305 305 306 306 306 306 306 306 307 308 313 319 321 320 319 316 312 311 310
333 334 333 333 333 332 331 330 330 331 330 329 327 327 327 327 325 325 323 319 317 312 306 304 304 304 305 305 305 305 305 305 306 308 311 322 324 324 324 322 322 320 320
335 334 335 334 333 333 332 331 331 332 331 330 328 328 328 327 326 324 323 321 318 317 315 309 304 303 303 303 304 304 304 304 305 306 308 313 316 320 320 321 320 321 322
335 334 334 335 336 334 333 332 331 332 331 330 329 329 328 328 326 325 324 321 320 317 317 317 316 312 308 305 304 303 303 303 304 306 312 315 313 315 311 307 307 309 313
334 334 334 334 334 335 335 332 332 333 332 331 330 330 329 328 325 326 325 320 320 319 319 318 317 317 317 317 317 317 316 315 315 317 319 319 319 319 319 319 319 318 316
333 334 334 333 333 333 334 333 333 334 333 331 331 331 330 328 326 326 326 324 322 321 320 320 319 319 318 318 318 318 318 317 317 317 318 317 318 318 317 317 317 317 317
332 335 331 334 334 333 333 333 332 331 331 331 330 330 331 328 327 326 326 325 323 322 321 320 320 320 319 319 319 318 318 318 317 316 315 315 315 316 314 314 314 314 314
327 333 331 335 336 330 332 333 332 331 329 330 329 329 330 329 326 325 326 325 325 323 322 321 320 320 320 320 320 319 318 317 317 316 314 314 313 311 310 310 311 311 311
327 329 331 331 328 333 329 332 331 329 331 330 329 329 329 329 328 327 327 326 326 324 323 322 321 321 321 320 318 317 318 316 315 314 312 310 308 306 304 304 307 307 307
323 325 327 328 327 325 331 327 330 329 329 330 329 329 328 329 329 328 328 328 326 325 324 322 321 319 320 319 316 314 316 314 313 311 309 307 304 302 300 298 299 303 303
319 320 320 320 322 324 325 326 326 327 327 328 328 328 327 327 328 328 328 328 326 325 324 321 319 319 318 318 316 314 313 311 310 308 305 303 301 298 295 294 294 294 294
316 315 314 314 314 315 315 316 319 327 330 325 327 328 327 326 327 327 326 324 326 325 323 321 319 318 317 316 315 312 310 308 306 304 303 300 297 295 294 293 293 292 292
314 314 314 314 314 313 312 312 311 312 321 325 325 326 326 326 328 327 324 326 327 324 323 320 318 317 316 315 312 309 307 305 303 302 300 297 295 293 293 292 292 292 291
314 314 313 313 313 312 312 312 312 311 317 322 324 325 326 326 326 325 325 327 325 324 322 320 319 316 317 313 309 306 304 302 301 300 298 296 293 292 292 292 292 292 291
313 313 313 312 312 312 312 312 312 312 320 320 320 326 324 326 324 325 324 323 325 322 323 321 318 316 313 310 307 303 300 298 299 298 296 293 292 292 291 292 292 290 290
314 313 313 312 311 311 311 312 312 315 317 319 324 325 327 323 325 322 326 325 324 323 321 320 317 314 311 307 304 302 297 295 297 296 295 292 291 291 291 290 289 289 289
314 314 313 313 312 311 311 311 312 318 319 324 322 323 322 324 322 323 324 323 322 320 319 318 315 310 307 305 303 301 300 299 297 295 293 290 290 290 289 289 289 289 288
316 315 313 312 312 311 310 310 311 313 316 317 321 322 322 323 322 321 320 321 320 318 318 316 309 306 303 301 301 299 297 296 296 293 291 289 289 289 288 288 288 288 288
314 314 314 312 311 310 310 310 311 313 316 318 320 321 322 321 320 318 319 319 318 317 314 307 303 302 300 300 298 298 296 295 294 294 291 289 288 288 288 288 287 287 287
314 313 312 312 311 310 309 310 311 312 318 318 320 321 320 320 319 318 318 318 317 315 305 301 299 299 297 296 296 295 295 295 294 294 292 289 288 287 288 287 287 286 286

GFSSE_850_thetae_069.txt.gz
Theta_e
331 331 331 331 332 333 333 327 322 316 314 313 312 312 313 314 315 316 331 332 330 332 333 332 322 315 313 316 315 312 312 315 320 324 330 333 334 334 333 334 334 335 336
336 332 330 332 332 333 334 329 321 316 315 313 311 311 312 312 313 313 320 331 331 332 330 326 317 314 312 309 308 308 309 311 315 320 320 319 323 324 325 330 333 333 334
338 337 332 333 332 332 333 329 322 318 318 315 313 311 310 311 311 312 313 322 328 329 327 323 317 313 311 309 308 308 310 316 322 324 324 320 318 317 315 317 319 325 330
339 338 335 334 332 333 334 331 323 320 321 321 321 319 314 311 309 310 311 314 328 328 328 323 316 311 309 308 308 308 310 318 324 325 325 324 323 321 316 310 310 311 313
339 339 338 333 331 333 334 332 326 322 321 323 324 323 321 315 311 308 308 310 328 328 326 315 313 308 307 308 308 309 316 323 324 325 325 323 325 324 319 312 309 309 309
339 339 334 332 331 333 333 333 328 324 323 324 325 324 324 322 317 312 308 306 308 321 309 311 309 307 307 307 308 310 321 324 325 326 324 324 324 325 324 321 323 322 321
340 339 332 330 331 332 331 332 330 327 325 325 326 325 324 323 323 318 311 307 306 306 307 307 306 306 306 307 307 310 324 323 325 326 327 327 327 326 326 323 323 323 325
339 340 332 331 331 331 331 332 331 329 327 326 327 326 325 323 323 321 316 311 307 305 305 305 305 305 305 306 306 309 319 321 321 322 322 323 321 321 321 321 320 320 321
339 338 334 332 331 331 331 331 332 331 329 328 327 327 326 324 323 322 320 316 311 307 304 304 304 304 304 304 305 308 316 319 320 320 320 319 319 319 318 318 319 317 317
338 339 338 335 332 332 331 331 331 332 331 329 328 328 327 325 324 321 320 318 316 313 310 307 305 304 304 303 304 307 315 319 321 321 321 320 320 321 322 321 319 317 315
338 338 338 338 336 336 334 332 331 332 331 330 329 329 328 326 325 322 319 319 318 317 316 316 315 314 313 311 311 315 316 319 320 320 320 320 321 321 320 318 316 314 310
339 339 338 339 338 339 339 333 332 331 332 331 330 329 329 327 325 325 322 321 320 319 318 318 317 316 316 316 317 317 317 317 318 318 318 317 317 317 315 315 314 311 308
337 338 339 338 340 340 339 335 333 332 332 332 331 330 329 328 326 325 324 323 322 321 320 319 318 318 318 317 317 317 315 316 316 316 315 316 316 316 315 312 312 308 303
335 336 340 340 340 339 335 335 333 332 333 333 332 331 330 328 327 325 325 323 323 322 321 320 320 319 319 318 318 316 314 314 315 314 312 313 314 314 312 310 308 302 300
334 335 335 339 336 335 334 334 331 332 331 332 331 331 330 329 328 326 325 323 323 323 322 322 321 320 320 319 318 317 315 314 312 310 308 307 311 311 309 307 306 306 305
334 334 334 333 330 332 330 330 330 331 332 332 332 331 329 329 329 328 326 324 324 323 322 322 322 321 320 319 317 317 315 313 310 307 304 303 302 301 304 305 305 304 304
332 332 333 325 329 332 329 332 331 329 330 333 332 332 331 330 329 328 327 326 325 325 324 322 322 320 319 318 316 315 313 310 307 304 301 299 296 295 295 298 302 303 303
330 330 328 323 325 330 329 329 329 331 330 330 331 331 332 331 330 330 329 328 327 326 325 323 322 320 319 317 316 313 310 308 305 302 300 297 295 294 293 293 294 298 300
325 327 325 321 323 326 329 331 330 328 330 330 329 329 330 331 330 330 329 328 328 326 325 324 322 320 319 318 315 311 308 305 302 300 297 295 294 294 293 292 291 291 294
320 322 321 320 320 325 328 329 329 329 326 328 329 328 326 328 328 329 328 328 328 328 325 324 322 320 319 317 315 310 305 302 300 298 296 295 294 293 292 291 290 290 290
315 317 318 319 320 323 324 324 324 323 323 322 324 325 328 327 327 326 327 327 327 328 326 323 323 320 318 317 316 307 302 300 299 297 296 294 292 292 291 290 290 290 290
315 314 315 316 317 318 319 318 316 316 315 314 314 314 319 326 327 325 327 328 326 327 325 324 324 320 317 317 315 307 298 297 297 296 295 293 292 291 290 290 290 290 289
317 316 315 315 315 316 315 315 314 314 313 313 312 312 312 316 327 329 327 327 326 327 326 324 322 322 320 317 314 309 299 298 296 296 295 293 291 290 290 289 289 289 289
315 315 316 315 314 314 314 314 314 313 313 313 312 312 312 312 329 326 326 328 326 326 326 325 323 321 320 318 314 308 303 302 297 293 293 292 290 290 289 289 289 289 289
315 314 314 314 314 313 313 313 313 313 313 311 311 312 312 312 324 323 328 323 324 327 325 325 323 322 319 318 318 312 303 302 299 296 291 291 290 289 289 289 289 289 288
313 314 314 313 314 313 312 312 312 312 312 311 311 311 312 314 323 321 320 326 324 324 322 322 323 321 320 317 315 313 306 302 299 297 294 292 291 290 289 289 289 288 288

GFSSE_850_thetae_072.txt.gz
Theta_e
330 331 332 331 332 331 330 323 316 314 312 312 312 313 314 317 324 331 328 332 333 334 328 315 312 313 315 312 312 316 320 321 325 331 333 333 332 333 333 333 335 335 334
330 331 331 332 333 333 330 322 316 314 312 311 311 312 312 312 314 321 331 333 331 329 321 314 311 309 308 309 310 313 318 322 319 316 320 323 323 325 329 331 332 333 333
330 330 330 332 332 333 331 322 318 317 316 313 311 310 311 311 314 320 326 332 331 324 317 313 310 309 308 309 313 319 324 324 324 321 316 317 319 317 316 318 323 327 328
334 331 332 333 332 333 332 324 320 320 320 320 317 314 311 310 310 312 324 330 327 326 318 312 309 308 308 309 314 321 325 325 324 321 318 318 321 322 318 313 312 313 314
338 336 333 333 331 333 333 326 321 321 322 324 323 321 318 312 309 309 323 329 327 315 312 310 307 308 308 311 318 323 324 323 321 318 318 323 321 324 323 317 318 321 323
338 336 333 332 331 333 334 329 324 322 323 324 324 323 322 318 312 308 309 316 311 309 310 307 307 307 309 315 323 325 325 324 325 325 325 325 326 325 323 325 323 323 323
338 338 336 332 331 333 333 331 327 325 324 325 325 324 322 322 318 311 308 307 306 307 307 306 306 307 308 314 321 324 324 325 324 327 328 326 325 323 323 322 322 321 321
338 338 335 331 331 332 332 332 330 327 326 326 326 325 323 322 321 317 312 309 306 306 305 305 306 306 307 311 316 321 321 322 321 323 321 321 321 320 320 320 320 318 319
337 338 334 330 331 332 331 332 331 329 328 327 326 326 325 323 322 321 318 312 308 305 305 305 305 305 306 308 313 316 316 316 317 320 320 321 322 321 319 319 319 316 317
336 337 334 331 331 331 331 331 332 331 330 328 327 327 326 324 323 320 318 315 312 308 306 304 304 304 305 306 310 314 317 321 321 319 320 322 323 321 319 317 310 309 308
336 336 337 333 332 332 331 331 331 331 331 329 328 328 327 325 323 319 318 317 316 314 313 310 306 305 306 308 312 315 318 319 319 321 322 322 321 320 317 316 312 311 303
336 335 336 335 335 336 335 332 331 331 331 331 329 329 328 327 325 323 320 319 318 317 316 315 314 311 312 315 316 317 318 319 319 319 318 318 317 317 316 313 310 307 303
334 336 336 336 335 334 334 334 332 332 332 332 330 329 329 328 326 324 324 323 321 320 319 318 317 317 316 317 317 316 317 318 317 316 315 315 315 314 314 312 309 307 306
335 336 336 335 335 335 334 334 334 334 333 332 331 329 330 329 326 325 325 324 322 321 321 320 319 319 318 317 316 315 315 316 315 315 314 313 313 313 311 309 308 307 306
335 337 334 336 335 335 335 335 334 334 333 332 332 331 330 330 328 326 324 324 323 322 322 321 320 320 319 318 317 316 315 315 314 312 312 312 312 310 309 308 307 306 305
333 334 335 334 336 335 336 336 334 333 331 331 332 332 331 330 328 327 326 324 322 322 322 321 322 320 320 319 318 317 315 313 311 310 309 308 306 305 307 307 306 305 304
332 333 334 335 332 338 338 334 334 332 330 332 331 333 332 331 329 328 327 326 323 323 323 323 322 321 320 319 318 316 315 312 309 307 305 305 300 297 302 304 304 304 303
330 332 333 333 332 330 330 332 330 328 329 330 331 332 332 332 330 329 328 327 326 324 324 323 322 322 320 318 318 315 313 310 307 304 302 300 296 296 295 296 299 301 302
324 330 331 330 328 325 325 331 331 329 328 328 330 331 332 332 332 332 329 328 328 327 326 325 323 322 320 318 317 315 312 308 305 302 301 297 295 294 293 293 293 294 298
320 323 328 328 326 325 326 328 330 329 329 329 329 330 330 330 331 331 330 329 329 328 327 325 323 322 320 318 316 314 310 306 303 301 298 296 294 293 293 292 292 291 291
318 319 323 326 325 324 324 326 328 326 326 327 326 326 329 328 330 332 329 330 329 328 326 325 324 322 319 317 317 314 308 303 301 299 297 295 293 293 292 292 292 291 291
316 316 321 323 323 319 320 321 323 323 324 324 322 321 323 326 329 332 331 330 328 328 328 327 326 323 318 319 316 313 306 301 299 298 297 294 293 292 292 292 291 291 290
317 316 316 318 318 318 319 321 323 326 326 325 319 317 318 321 326 329 331 330 327 328 328 326 324 324 321 318 317 316 307 305 300 297 295 295 293 292 291 291 291 290 290
317 317 316 315 317 318 318 318 319 318 318 316 315 314 314 314 316 323 328 327 327 326 325 327 325 324 322 321 317 316 314 309 300 296 294 294 294 292 291 290 290 290 289
317 317 316 315 315 315 315 315 316 316 316 315 314 314 313 313 312 315 324 324 322 325 325 324 325 323 322 320 320 319 314 308 303 300 296 295 294 292 291 290 290 289 289
316 316 316 315 314 313 314 314 314 314 314 314 314 314 313 312 311 311 315 322 320 325 324 323 322 325 323 320 321 320 318 314 308 301 298 295 295 293 292 290 289 289 289

GFSSE_850_thetae_075.txt.gz
Theta_e
331 332 332 330 330 328 322 315 313 312 312 312 313 314 320 327 328 331 333 334 331 319 313 311 314 313 314 317 320 321 322 328 332 332 332 332 332 332 333 333 334 334 334
331 332 331 331 330 330 323 316 314 312 311 311 312 313 315 320 329 333 334 333 329 318 312 309 308 309 312 316 320 321 316 315 318 323 326 325 326 328 330 331 332 332 332
331 331 331 332 332 330 323 317 317 315 313 311 310 311 312 315 326 331 333 331 325 314 311 309 308 310 315 324 326 325 326 319 313 313 314 316 319 320 322 327 326 327 328
330 330 331 331 332 331 324 319 319 320 320 319 315 311 310 311 318 329 330 325 318 312 309 308 308 311 316 321 325 325 323 320 316 313 313 314 318 324 320 317 315 313 314
330 330 332 331 332 332 327 321 320 321 323 322 321 317 312 309 315 329 328 320 313 310 307 308 309 312 317 320 323 322 320 317 316 318 323 324 325 326 324 326 326 326 326
335 333 333 332 331 333 329 324 322 321 323 323 323 320 318 311 309 316 316 310 309 308 307 308 309 313 316 325 324 323 324 324 325 326 326 324 325 325 324 320 321 321 323
337 336 333 332 331 333 332 326 324 323 324 324 323 321 320 319 313 309 308 307 307 307 306 307 309 313 316 323 324 324 324 325 325 326 324 324 323 323 321 321 319 320 319
337 337 335 332 330 332 332 330 327 325 325 325 325 323 321 320 319 314 310 307 306 306 306 306 308 311 316 320 321 322 322 323 323 323 321 321 320 321 319 320 321 319 318
337 337 337 332 330 331 331 331 329 327 326 326 325 325 323 321 321 319 314 309 306 305 305 306 307 309 313 315 313 314 316 318 317 317 320 321 321 319 320 319 318 314 314
336 336 336 331 330 331 331 331 331 329 328 327 326 326 325 322 322 319 316 312 308 305 304 305 305 307 310 314 314 315 320 319 319 323 323 322 320 319 318 315 313 310 308
334 334 336 331 330 330 331 331 331 331 330 328 328 327 326 325 322 318 316 315 313 309 306 304 304 305 308 312 314 318 320 318 320 322 322 321 318 317 314 314 310 310 308
335 334 334 333 331 331 331 331 331 331 330 330 329 328 327 326 324 321 318 317 316 314 312 309 307 307 309 312 315 318 319 319 321 321 320 319 316 314 314 310 309 308 307
335 334 334 335 332 333 332 332 331 331 331 330 330 329 328 328 326 324 323 321 320 318 317 315 314 313 315 316 316 316 318 319 319 318 316 315 313 312 311 310 310 307 306
336 335 332 335 334 334 333 333 332 331 331 331 331 329 329 328 326 324 324 324 323 321 320 319 318 317 317 317 317 316 318 317 316 314 314 313 312 312 312 311 309 307 306
336 335 330 334 334 334 333 333 332 333 333 332 332 330 330 329 327 326 324 324 323 322 321 321 321 319 318 318 317 316 316 316 314 312 312 312 311 311 311 310 308 308 306
327 328 329 333 332 334 333 333 333 333 333 333 332 331 331 330 329 327 325 324 322 322 321 321 321 321 319 318 318 316 315 315 313 311 311 311 310 310 309 309 307 306 305
325 327 330 333 333 332 334 333 333 333 333 333 332 332 332 331 330 329 326 324 323 322 322 321 321 320 320 319 318 317 315 314 313 310 310 308 305 304 307 306 306 305 304
325 329 331 332 333 333 331 334 333 334 333 332 331 332 332 333 331 330 328 327 325 323 322 322 322 322 321 320 318 317 315 313 311 310 309 308 304 300 300 303 304 303 304
320 327 330 332 332 332 333 331 335 332 333 332 330 331 331 332 331 330 330 328 327 325 323 322 322 321 321 320 318 316 315 312 309 307 305 304 300 297 296 296 296 299 302
316 320 327 331 331 332 331 331 331 334 333 330 329 329 329 331 332 331 330 329 328 327 325 323 323 322 321 320 318 315 313 311 308 305 303 300 297 295 294 293 293 293 296
316 317 322 327 330 331 331 330 330 329 332 331 328 327 328 328 331 331 329 329 328 328 326 326 323 323 322 318 316 311 306 307 306 303 302 300 297 295 293 292 292 292 292
317 317 317 321 326 328 329 325 326 323 326 330 329 328 327 329 329 330 329 328 328 327 327 325 325 323 319 320 316 310 304 303 304 304 300 298 296 295 293 292 292 291 291
317 317 317 317 318 323 324 327 328 327 327 329 328 328 329 326 331 329 328 328 327 327 326 326 325 323 324 321 318 315 308 308 305 305 304 299 296 295 293 292 291 291 291
317 317 317 317 316 318 322 325 325 323 322 321 323 325 324 327 326 330 327 327 327 326 325 325 326 324 324 322 319 315 316 312 310 302 301 300 296 294 293 291 291 291 291
316 317 317 317 316 317 319 321 322 323 322 322 323 323 325 325 325 324 328 325 326 326 325 324 325 325 324 322 322 321 315 313 312 312 307 301 296 294 293 292 291 291 290
317 317 317 316 316 315 316 318 319 320 321 320 321 321 321 320 319 318 319 324 324 325 325 325 323 325 324 323 321 321 320 318 317 312 311 304 300 297 295 293 290 290 290